sat.trackr.live / text

‹ back to catalog

INTELSAT 904 (IS-904)

NORAD 27380 · 2002-007A

PAYLOAD ACTIVE UNKNOWN

§ Identity

Operator
Country
ITSO
Launch date
2002-02-23
Launch site
FRGUI
Launch vehicle
Mass (kg)
RCS (m²)
23.79

Purposes: comms

External: N2YO · Heavens-Above · Gunter

§ Orbital elements

Epoch: 2026-05-25T01:48:46.577376Z

Period
1,436.12 min
Inclination
6.8651°
Eccentricity
0.0007352
Mean motion
1.00270246 rev/d
Perigee alt
35,756.0 km
Apogee alt
35,818.0 km
Semi-major
42,165.2 km
B*
0.0000e+0
RAAN
69.4589°
Arg perigee
351.6708°
Mean anomaly
177.2336°
Rev number
5,153

§ Raw data

INTELSAT 904 (IS-904)1 27380U 02007A   26145.07553909 -.00000227  00000+0  00000+0 0  99952 27380   6.8651  69.4589 0007352 351.6708 177.2336  1.00270246 51531

JSON: /api/v1/satellites/27380 · /tle

For live sub-satellite position, see the globe view (requires WebGL).

§ Visibility from observer

Set your observer location to see the next 7 days of passes ≥ 10°. The values pass through the URL so the page stays shareable.

No JS? Fill the form by hand. The geolocation button needs JavaScript.